Torna al catalogo

COSMOS 1275 DEB

AttivoPO
NORAD 13019·DEBRIS·🇷🇺 Russia

Lanciato Jun 4, 1981 da Plesetsk Cosmodrome

Loading…

Prossimi Passaggi (prossime 24 ore)

TLE

AggiornatoSource: Space-Track

Epoca: Sep 13, 2026, 19:35 UTC

1 13019U 81053ER  26256.81597631  .00001082  00000-0  68031-3 0  9994
2 13019  82.9420  19.8647 0068437  48.9907 112.4644 14.02372797258819

Traccia COSMOS 1275 DEB in tempo reale con AllMySat

Download on the App Store